Queretaro Airport,

3:49 AM CDT on May 27, 2018 (GMT -0500)
Queretaro Airport

Weather History for MMQT - September, 2012

Change the Weather History Date:

Sunday, September 2, 2012

  Actual Average Record
Temperature  
Mean Temperature 70 °F -  
Max Temperature 84 °F 75 °F 85 °F (2014)
Min Temperature 57 °F 55 °F 51 °F (2000)
Cooling Degree Days 6    
Growing Degree Days 20 (Base 50)    
Moisture  
Dew Point 48 °F    
Average Humidity 48    
Maximum Humidity 80    
Minimum Humidity 25    
Precipitation  
Precipitation 0.00 in - - ()
Sea Level Pressure  
Sea Level Pressure 30.20 in    
Wind  
Wind Speed 6 mph ()    
Max Wind Speed 17 mph    
Max Gust Speed -    
Visibility 6.5 miles    
Events      
Averages and records for this station are not official NWS values.
T = Trace of Precipitation, MM = Missing Value Source: Averaged Metar Reports

Daily Weather History Graph

Daily Weather History Graph

Search for Another Location

Airport or City:

Astronomy

Sep. 02, 2012 Rise Set
Actual Time 7:25 AM CDT 7:55 PM CDT
Civil Twilight 7:02 AM CDT 8:17 PM CDT
Nautical Twilight 6:36 AM CDT 8:43 PM CDT
Astronomical Twilight 6:10 AM CDT 9:09 PM CDT
Moon 9:12 PM CDT (9/2) 9:09 AM CDT (9/2)
Length of Visible Light 13h 14m
Length of Day
12h 29m
Waning Gibbous, 95% of the Moon is Illuminated
Sep 2
Waning Gibbous
Sep 8
Last Quarter
Sep 15
New
Sep 22
First Quarter
Sep 29
Full

Hourly Weather History & Observations

Time (CDT) Temp. Dew Point Humidity Pressure Visibility Wind Dir Wind Speed Gust Speed Precip Events Conditions
12:30 AM 64 °F 59 °F 77% 29.85 in 6 mi East 6.7 mph - -   Mostly Cloudy
12:45 AM 62.6 °F 44.6 °F 52% 30.35 in 7.0 mi East 3.5 mph - N/A   Overcast
1:45 AM 62.6 °F 44.6 °F 52% 30.34 in 7.0 mi East 5.8 mph - N/A   Overcast
2:50 AM 62.6 °F 44.6 °F 52% 30.34 in 6.0 mi ESE 6.9 mph - N/A   Overcast
3:40 AM 63 °F 58 °F 80% 29.85 in 6 mi East 2.2 mph - -   Mostly Cloudy
3:52 AM 62.6 °F 44.6 °F 52% 30.33 in 6.0 mi ENE 6.9 mph - N/A   Overcast
4:55 AM 60.8 °F 44.6 °F 55% 30.32 in 6.0 mi East 6.9 mph - N/A   Overcast
5:45 AM 59.0 °F 46.4 °F 63% 30.32 in 6.0 mi SE 4.6 mph - N/A   Mostly Cloudy
6:40 AM 62 °F 57 °F 79% 29.89 in 3 mi East 15.7 mph - -   Mostly Cloudy
6:45 AM 57.2 °F 42.8 °F 59% 30.33 in 6.0 mi East 5.8 mph - N/A   Mostly Cloudy
7:45 AM 57.2 °F 42.8 °F 59% 30.35 in 6.0 mi NE 5.8 mph - N/A   Mostly Cloudy
8:45 AM 62.6 °F 42.8 °F 48% 30.36 in 6.0 mi Calm Calm - N/A   Mostly Cloudy
9:40 AM 67 °F 58 °F 65% 29.95 in 3 mi East 13.4 mph - -   Partly Cloudy
9:45 AM 66.2 °F 44.6 °F 46% 30.37 in 6.0 mi East 6.9 mph - N/A   Mostly Cloudy
10:45 AM 69.8 °F 42.8 °F 38% 30.37 in 7.0 mi East 9.2 mph - N/A   Mostly Cloudy
11:45 AM 75.2 °F 46.4 °F 36% 30.38 in 7.0 mi East 9.2 mph - N/A   Mostly Cloudy
12:45 PM 73.4 °F 44.6 °F 36% 30.36 in 7.0 mi NE 5.8 mph - N/A   Scattered Clouds
12:50 PM 78 °F 56 °F 37% 29.91 in 6 mi East 6.7 mph - -   Scattered Clouds
1:45 PM 75.2 °F 42.8 °F 31% 30.34 in 7.0 mi NNE 6.9 mph - N/A   Scattered Clouds
2:50 PM 78.8 °F 42.8 °F 28% 30.30 in 7.0 mi NE 6.9 mph - N/A   Scattered Clouds
3:45 PM 82.4 °F 42.8 °F 25% 30.28 in 8.0 mi NE 9.2 mph - N/A   Scattered Clouds
3:52 PM 83 °F 53 °F 25% 29.75 in 6 mi North 2.2 mph - -   Partly Cloudy
4:45 PM 80.6 °F 44.6 °F 28% 30.25 in 8.0 mi ENE 9.2 mph - N/A   Scattered Clouds
5:45 PM 78.8 °F 44.6 °F 30% 30.23 in 8.0 mi NNE 17.3 mph - N/A   Mostly Cloudy
6:48 PM 75.2 °F 46.4 °F 36% 30.24 in 8.0 mi NE 16.1 mph - N/A   Mostly Cloudy
6:50 PM 79 °F 54 °F 31% 29.66 in 6 mi NE 6.7 mph - -   Partly Cloudy
7:45 PM 71.6 °F 46.4 °F 41% 30.24 in 8.0 mi ENE 15.0 mph - N/A   Mostly Cloudy
8:45 PM 68.0 °F 48.2 °F 49% 30.27 in 8.0 mi East 11.5 mph - N/A   Mostly Cloudy
9:48 PM 64.4 °F 48.2 °F 56% 30.31 in 7.0 mi ESE 3.5 mph - N/A   Scattered Clouds
9:55 PM 69 °F 54 °F 50% 29.71 in 6 mi South 6.7 mph - -   Mostly Cloudy
10:45 PM 62.6 °F 48.2 °F 59% 30.36 in 7.0 mi Calm Calm - N/A   Scattered Clouds
11:45 PM 59.0 °F 50.0 °F 72% 30.36 in 7.0 mi ENE 5.8 mph - N/A   Mostly Cloudy